Powrót do katalogu

METEOR 2-8 DEB

AktywnyPO
NORAD 36861·DEBRIS·🇷🇺 Russia

Wystrzelony Mar 25, 1982 z Plesetsk Cosmodrome

Loading…

Następne Przeloty (najbliższe 24 godziny)

TLE

Starzejące sięSource: Space-Track

Epoka: Sep 6, 2026, 08:38 UTC

1 36861U 82025AY  26249.35979339  .00001849  00000-0  69654-3 0  9997
2 36861  82.5018 113.9639 0025176 171.0979 189.0659 14.30854095677611

Śledź METEOR 2-8 DEB w czasie rzeczywistym z AllMySat

Download on the App Store